Regional Weather Roundup
Issued by NWS

Home | Current Version | Previous Version | Graphics & Text | Print | Product List | Glossary On
Versions: 1 2 3 4 5 6 7 8 9 10 11 12 13 14 15 16 17 18 19 20 21 22 23 24 25 26 27 28 29 30 31 32 33 34 35 36 37 38 39 40 41 42 43 44 45 46 47 48 49 50
000
ASUS44 KMEG 151910
RWRTN
TENNESSEE HOURLY STATE WEATHER ROUNDUP
NATIONAL WEATHER SERVICE MEMPHIS TN
200 PM CDT TUE APR 15 2014

TNZ002-004-019-021-049-052-054-088>092-152000-
WEST TENNESSEE

CITY           SKY/WX    TMP DP  RH WIND       PRES   REMARKS
MEMPHIS INTL   MOSUNNY   49  22  34 N10G23    30.23S
NWS MEMPHIS      N/A     48 N/A N/A MISG        N/A
JACKSON        SUNNY     48  23  37 N16G24    30.21S
DYERSBURG      MOSUNNY   45  21  39 NW7G23    30.24F
UNION CITY     SUNNY     43  25  49 NW16      30.20F
PARIS          MOSUNNY   42  21  43 N12       30.20R
LEXINGTON      SUNNY     45  19  36 N13       30.16S
SAVANNAH       SUNNY     47  25  42 N12       30.17R
$$

TNZ008-025-027-028-033-062-065-066-152000-
NORTH MIDDLE TENNESSEE

CITY           SKY/WX    TMP DP  RH WIND       PRES   REMARKS
NASHVILLE      PTSUNNY   47  26  44 NW14G25   30.13F
DICKSON        MOSUNNY   43  21  42 N13       30.14R
CLARKSVILLE    PTSUNNY   43  25  49 N15G24    30.18R
SMYRNA         PTSUNNY   45  26  47 N13G22    30.14S
MURFREESBORO   PTSUNNY   43  27  53 N14       30.12S
LIVINGSTON     CLOUDY    36  28  73 N8        30.07R WCI  30
GALLATIN       PTSUNNY   44  24  45 NW14      30.13S
CROSSVILLE     CLOUDY    37  30  75 NW13G21   30.04R HAZE    WCI  29
$$

TNZ061-075-076-078-094-096-097-152000-
SOUTH MIDDLE TENNESSEE

CITY           SKY/WX    TMP DP  RH WIND       PRES   REMARKS
LEWISBURG      MOSUNNY   46  27  48 N15       30.12R
FAYETTEVILLE   MOSUNNY   44  28  53 N20G28    30.09R
TULLAHOMA      CLOUDY    39  27  60 NW16      30.09R WCI  30
WINCHESTER     CLOUDY    41  30  65 NW14      30.08F
MCMINNVILLE    CLOUDY    41  28  60 N15       30.08S
COLUMBIA       MOSUNNY   46  30  53 N10       30.11S
SHELBYVILLE    CLOUDY    43  30  61 N16       30.11S
$$

TNZ017-018-042-046-047-152000-
NORTHEAST TENNESSEE

CITY           SKY/WX    TMP DP  RH WIND       PRES   REMARKS
TRI CITIES     LGT SNOW  38  34  85 N10       29.96R FOG     WCI  31
ELIZABETHTON   LGT SNOW  34  32  93 W12G17    29.93S FOG     WCI  25
$$

TNZ012-013-036-069-073-074-152000-
CENTRAL EAST TENNESSEE

CITY           SKY/WX    TMP DP  RH WIND       PRES   REMARKS
KNOXVILLE      CLOUDY    40  31  70 N14       30.03R WCI  32
OAK RIDGE      CLOUDY    42  29  59 N10G17    30.06R
$$

TNZ083-085-099-152000-
SOUTHEAST TENNESSEE

CITY           SKY/WX    TMP DP  RH WIND       PRES   REMARKS
CHATTANOOGA    PTSUNNY   47  32  56 N16G24    30.03R
$$

SKY/WX REPORTED AS FAIR MEANS FEW OR NO CLOUDS BELOW
12 THOUSAND FEET.




USA.gov is the U.S. government's official web portal to all federal, state and local government web resources and services.